User: anonymous   Login
Location: ????????
(55.1591°N, 39.1782°E)
Time: 14:30:28
(UTC+00:00)
Language:

Cosmos 1726 - Orbit

View from above orbital plane
View from above orbital plane
View from above satellite
View from above satellite

Ground track
Ground track

The orbit data is extracted from the following two-line orbital elements,

1 16495U 86006A   24176.97401446  .00048091  00000-0  56197-3 0  9993
2 16495  82.4593 355.7835 0006146 127.8743 232.3071 15.61374666108241
Epoch (UTC): 24 June 2024 23:22:34
Eccentricity: 0.0006146
inclination: 82.4593°
perigee height: 379 km
apogee height: 388 km
right ascension of ascending node: 355.7835°
argument of perigee: 127.8743°
revolutions per day: 15.61374666
mean anomaly at epoch: 232.3071°
orbit number at epoch: 10824

The dashed part of the orbit path shows where the satellite is in the earth's shadow,  

DLR